Regional Weather Roundup
Issued by NWS Upton, NY

Current Version | Previous Version | Graphics & Text | Print | Product List | Glossary Off
Versions: 1 2 3 4 5 6 7 8 9 10 11 12 13 14 15 16 17 18 19 20 21 22 23 24 25 26 27 28 29 30 31 32 33 34 35 36 37 38 39 40 41 42 43 44 45 46 47 48 49 50

297
ASUS41 KOKX 241508
RWROKX

REGIONAL WEATHER ROUNDUP
NATIONAL WEATHER SERVICE NEW YORK NY
1100 AM EDT FRI MAR 24 2017

NOTE: "FAIR" INDICATES FEW OR NO CLOUDS BELOW 12,000 FEET WITH NO
SIGNIFICANT WEATHER AND/OR OBSTRUCTIONS TO VISIBILITY.

NYZ071-072-176-178-NJZ106-104-241600-
NEW YORK CITY METRO AREA

CITY           SKY/WX    TMP DP  RH WIND       PRES   REMARKS
Central Park   MOSUNNY   44  23  43 VRB3      30.43F
Wall St Helipt MOSUNNY   45  27  49 SW10      30.44F
LaGuardia APRT PTSUNNY   46  24  42 SW17G24   30.41F
Kennedy INTL   CLOUDY    44  31  60 S21       30.44F
Breezy Point     N/A     43 N/A N/A S8          N/A
Newark/Liberty CLOUDY    45  22  40 S18       30.41F
Teterboro      PTSUNNY   45  23  42 S14G24    30.39F
$$

NYZ177-179-078>081-241600-
LONG ISLAND NEW YORK

CITY           SKY/WX    TMP DP  RH WIND       PRES   REMARKS
Jones Beach      N/A     43 N/A N/A SW15G22     N/A
Matinecock PT    N/A     41 N/A N/A SW15G26     N/A
Farmingdale    CLOUDY    44  29  55 SW24G32   30.43F
MacArthur/ISP  CLOUDY    44  32  62 S16G30    30.43F
Shirley        PTSUNNY   43  31  62 S14       30.45F
Westhampton    CLOUDY    43  28  55 SW13G24   30.46F
East Hampton     N/A     41  29  61 SW12G24   30.44F
Montauk          N/A     43  30  60 S12G23    30.46F
$$

NYZ052-065-067-241600-
HUDSON VALLEY

CITY           SKY/WX    TMP DP  RH WIND       PRES   REMARKS
White Plains   MOSUNNY   41  24  51 S8        30.39F
Newburgh       CLOUDY    39  19  45 S9        30.37F WCI  33
Montgomery     CLOUDY    39  18  42 SW12      30.36F WCI  32
Poughkeepsie   CLOUDY    38  17  42 VRB7      30.38F WCI  33
Albany         LGT SNOW  32  24  72 S15G24    30.28F VSB 3/4 WCI  22
$$

NJZ001-105-106-008-010-013-015-019>022-104-241600-
NEW JERSEY

CITY           SKY/WX    TMP DP  RH WIND       PRES   REMARKS
Newark/Liberty CLOUDY    45  22  40 S18       30.41F
Teterboro      PTSUNNY   45  23  42 S14G24    30.39F
Caldwell       CLOUDY    43  20  39 SW5       30.41F
Somerville     CLOUDY    44  23  43 S9        30.38F
Linden         PTSUNNY   44  21  40 W6        30.42F
Sussex         LGT RAIN  38  24  57 SW12G20   30.37S WCI  30
Andover          N/A     38  23  55 S8        30.37F WCI  32
Trenton        CLOUDY    42  23  46 SW15      30.41F
Millville      CLOUDY    46  25  43 S8        30.47F
Atlantic City  MOSUNNY   49  24  37 SW15G22   30.46F
Wrightstown    CLOUDY    44  25  45 SW13G21   30.41F
Toms River     CLOUDY    49  23  36 SW13G23   30.45F
Belmar         CLOUDY    49  20  31 SW10G24   30.44F
$$

PAZ047>061-062-071-241600-
EASTERN PENNSYLVANIA

CITY           SKY/WX    TMP DP  RH WIND       PRES   REMARKS
Philadelphia   CLOUDY    45  26  47 SW14G25   30.43F
Allentown      LGT RAIN  42  27  55 S9        30.38F
Scranton       RAIN      36  29  75 S7        30.29F WCI  30
$$

CTZ002-004>006-009-010-012-RIZ004-006-007-MAZ004-011-015-241600-
SOUTHERN NEW ENGLAND
 IN CT

CITY           SKY/WX    TMP DP  RH WIND       PRES   REMARKS
Bradley INTL   CLOUDY    38  21  50 S10       30.40R WCI  31
Hartford       CLOUDY    39  26  59 S15G22    30.41S WCI  31
Danbury        CLOUDY    38  24  57 SW12      30.39F WCI  30
Wtrbury/Oxford PTSUNNY   37  21  52 SW16G25   30.39F WCI  28
Bridgeport     CLOUDY    44  30  57 SW13      30.42F
Meriden        CLOUDY    41  27  57 S15G23    30.41F
New Haven      CLOUDY    41  31  67 S10       30.43F
Chester        NOT AVBL
Groton         CLOUDY    43  30  60 SW16      30.43F
Wilimantic     CLOUDY    42  26  53 SW12      30.42F

 IN RI

CITY           SKY/WX    TMP DP  RH WIND       PRES   REMARKS
Providence     CLOUDY    41  27  57 SW18G28   30.42F
Block Island   CLOUDY    41  29  62 SW17      30.46F
Westerly       CLOUDY    43  30  60 SW16G23   30.45F
 IN MA

CITY           SKY/WX    TMP DP  RH WIND       PRES   REMARKS
Boston         CLOUDY    37  24  59 S10       30.42F WCI  30
Worcester      CLOUDY    34  15  46 SW18G28   30.35S WCI  23
Westfield      CLOUDY    36  21  54 S10       30.36F WCI  28
Provincetown   CLOUDY    37  24  59 S12       30.46F WCI  29
Nantucket      CLOUDY    39  24  55 S15       30.48F WCI  31
$$

ANZ330-335-338-340-345-350-353-355-241600-
COASTAL MARINE OBSERVATIONS


STATION/POSITION TIME  SKY/WX   TEMP    WIND        PRES    VSBY  WAVE
                                AIR SEA DIR/SP/G                  HT/PER
                 (UTC)          (F)     (DEG/KT/KT) (MB)    (MI)  (FT/S)
NY HARB ENTRANCE 1350            41 41  200/ 17/ 21 1031.6          4/ 5
20 S FIRE ISLAND 1450            42 40  200/ 17/ 21 1031.4          4/ 5
GREAT SOUTH BAY  NOT AVBL
23 SSW MONTAUK P 1350            42 42              1032.1          3/ 4
15 E BARNEGAT LI 1430               42                N/A           4/ 5
HUDSON CANYON    1350            44 44  200/ 17/ 19 1032.9          3/ 4
KINGS POINT      1448            41 38              1029.7
EXECUTION ROCKS  NOT AVBL
CENTRAL LI SOUND 1415            40     210/ 12/ 14   N/A           1/ 3
EASTERN LI SOUND NOT AVBL
ROBBINS REEF     1448            42     200/ 16/ 20 1030.2
$$


>>>>>>>>>>>>>>>>>>>>>>>>>>>> KEY <<<<<<<<<<<<<<<<<<<<<<<<<<<
>                                                          <
>     SKY/WX - Sky Condition/Present Weather               <
>     TMP    - Temperature in Fahrenheit                   <
>     DP     - Dew Point in Fahrenheit                     <
>     RH     - Relative Humidity in Percent                <
>     WIND   - Direction (from) and Speed in MPH           <
>     PRES   - Mean Sea Level Pressure (inches of Hg)      <
>     WCI    - Wind Chill Index                            <
>     VSB    - VISIBILITY IN MILES                         <
>     HX     - HEAT INDEX                                  <
>     TC     - TEMPERATURE IN CELSIUS                      <
>     VRB    - VARIABLE WIND DIRECTION                     <
>                                                          <
>>>>>>>>>>>>>>>>>>>>>>>>>>>> KEY <<<<<<<<<<<<<<<<<<<<<<<<<<<




USA.gov is the U.S. government's official web portal to all federal, state and local government web resources and services.